This demonstration page uses our WeatherBlox Daily Observations layout. Learn more.

Left ArrowRight Arrow

Hourly Observations for December 12, 2015

Temp ( °F °C ) Dew Point ( °F °C ) Humidity (%) Winds ( mph kmh ) Pressure ( in mb ) Visibility ( mi km ) Precip ( " mm )
12:01 am 00:01 Partly Cloudy 58 14.4 33 0.6 39 39 S 14 22 29.59 1002 10 16 N/A
12:51 am 00:51 Cloudy with Light Rain 52 11.1 40 4.4 64 64 NW 17 28 29.53 1000 10 16 N/A
1:51 am 01:51 Cloudy with Rain 46 7.8 41 5 83 83 WNW 17 28 29.54 1001 5 8 0.01 0.25
2:51 am 02:51 Cloudy with Rain 43 6.1 41 5 93 93 NW 25 41 29.58 1002 6 10 0.12 3.05
3:51 am 03:51 Cloudy with Light Rain 42 5.6 40 4.4 92 92 WNW 18 30 29.60 1002 10 16 0.15 3.81
4:51 am 04:51 Cloudy with Light Rain 42 5.6 40 4.4 92 92 NW 18 30 29.62 1003 10 16 N/A
5:51 am 05:51 Cloudy 41 5 39 3.9 93 93 NW 15 24 29.61 1003 10 16 0.03 0.76
6:51 am 06:51 Cloudy with Light Rain 41 5 39 3.9 93 93 WNW 12 19 29.65 1004 10 16 N/A
7:51 am 07:51 Partly Cloudy 40 4.4 39 3.9 97 97 WNW 8 13 29.66 1004 10 16 N/A
8:51 am 08:51 Partly Cloudy 45 7.2 39 3.9 80 80 NW 12 19 29.67 1005 10 16 N/A
9:51 am 09:51 Cloudy 46 7.8 37 2.8 71 71 WNW 17 28 29.69 1006 10 16 N/A
10:51 am 10:51 Cloudy 46 7.8 37 2.8 71 71 NW 15 24 29.71 1006 10 16 N/A
11:51 am 11:51 Cloudy with Light Rain 43 6.1 37 2.8 80 80 NW 26 43 29.70 1006 10 16 N/A
12:51 pm 12:51 Mostly Cloudy with Light Rain 44 6.7 37 2.8 76 76 NW 18 30 29.72 1006 10 16 N/A
1:51 pm 13:51 Cloudy 45 7.2 36 2.2 71 71 NW 20 31 29.72 1006 10 16 N/A
2:51 pm 14:51 Sunny with Light Rain 47 8.3 37 2.8 69 69 NW 15 24 29.72 1007 10 16 N/A
3:51 pm 15:51 Mostly Sunny 47 8.3 36 2.2 66 66 WNW 21 33 29.74 1007 10 16 N/A
4:51 pm 16:51 Mostly Cloudy 44 6.7 35 1.7 71 71 WNW 15 24 29.77 1008 10 16 N/A
5:51 pm 17:51 Cloudy with Light Rain 44 6.7 36 2.2 73 73 WNW 17 28 29.80 1009 10 16 N/A
6:51 pm 18:51 Cloudy 42 5.6 38 3.3 85 85 WNW 13 20 29.83 1010 10 16 N/A
7:51 pm 19:51 Cloudy 42 5.6 37 2.8 82 82 NW 16 26 29.85 1011 10 16 N/A
8:51 pm 20:51 Cloudy 43 6.1 37 2.8 80 80 NW 15 24 29.86 1011 10 16 N/A
9:51 pm 21:51 Cloudy 43 6.1 37 2.8 80 80 NW 15 24 29.86 1011 10 16 N/A
10:51 pm 22:51 Mostly Cloudy 42 5.6 36 2.2 79 79 NNW 12 19 29.88 1012 10 16 N/A
11:51 pm 23:51 Clear 40 4.4 36 2.2 86 86 NNW 9 15 29.89 1012 10 16 N/A

Powered by AerisWeather